EW9439 Weather Reports


time (UTC)temp
F
wind
direction
speed
knots
gust
knots
rain 1hr
in
rain 24hr
in
rain mn
in
humidity
%
barometer
mb
20260903193004 92 279 0.0 0.0 0.00 0.00 0.00 64 1011.6
20260903191505 91 280 0.0 0.0 0.00 0.00 0.00 63 1011.9
20260903190006 93 184 0.0 0.0 0.00 0.00 0.00 58 1012.0
20260903184508 93 355 0.0 0.0 0.00 0.00 0.00 59 1012.0
20260903183011 93 346 0.0 0.0 0.00 0.00 0.00 58 1012.2
20260903181509 94 332 0.0 4.3 0.00 0.00 0.00 56 1012.4
20260903180018 94 355 0.0 0.0 0.00 0.00 0.00 56 1012.5
20260903174517 94 188 0.0 0.0 0.00 0.00 0.00 56 1012.6
20260903173056 93 104 0.0 0.0 0.00 0.00 0.00 61 1012.7
20260903171558 92 355 0.0 0.0 0.00 0.00 0.00 61 1013.0
20260903170106 92 335 0.0 0.0 0.00 0.00 0.00 62 1013.2
20260903170002 92 335 0.0 0.0 0.00 0.00 0.00 62 1013.2
20260903164602 92 350 0.0 0.0 0.00 0.00 0.00 61 1013.4
20260903164501 92 203 0.0 0.0 0.00 0.00 0.00 61 1013.4
20260903163003 91 315 0.0 0.0 0.00 0.00 0.00 66 1013.5
20260903161504 91 198 0.0 0.0 0.00 0.00 0.00 66 1013.7
20260903160007 92 198 0.0 0.0 0.00 0.00 0.00 62 1013.9
20260903154601 90 166 0.0 0.0 0.00 0.00 0.00 63 1013.9
20260903154505 90 166 0.0 0.0 0.00 0.00 0.00 65 1013.9
20260903153009 90 166 0.0 0.0 0.00 0.00 0.00 67 1013.9
20260903151509 88 166 0.0 0.0 0.00 0.00 0.00 71 1013.8
20260903150012 87 166 0.0 0.0 0.00 0.00 0.00 72 1013.9
20260903144517 87 166 0.0 0.0 0.00 0.00 0.00 73 1013.8
20260903143011 86 166 0.0 0.0 0.00 0.00 0.00 75 1013.8
20260903141513 85 166 0.0 0.0 0.00 0.00 0.00 78 1013.9
20260903140015 84 166 0.0 0.0 0.00 0.00 0.00 78 1014.0
20260903134510 82 166 0.0 0.0 0.00 0.00 0.00 81 1014.1
20260903133015 81 166 0.0 0.0 0.00 0.00 0.00 85 1014.1
20260903131515 79 166 0.0 0.0 0.00 0.00 0.00 87 1014.2
20260903130014 76 166 0.0 0.0 0.00 0.00 0.00 93 1014.2
20260903124517 75 166 0.0 0.0 0.00 0.00 0.00 95 1014.1
20260903123015 74 166 0.0 0.0 0.00 0.00 0.00 95 1014.1
20260903121519 73 166 0.0 0.0 0.00 0.00 0.00 95 1014.1
20260903120019 73 166 0.0 0.0 0.00 0.00 0.00 95 1013.9
20260903114521 73 166 0.0 0.0 0.00 0.00 0.00 94 1013.8
20260903113023 73 166 0.0 0.0 0.00 0.00 0.00 94 1013.5
20260903111532 73 166 0.0 0.0 0.00 0.00 0.00 94 1013.4
20260903110027 73 166 0.0 0.0 0.00 0.00 0.00 94 1013.3
20260903104528 73 166 0.0 0.0 0.00 0.00 0.00 94 1013.2
20260903103039 73 166 0.0 0.0 0.00 0.00 0.00 94 1013.1
20260903101534 74 166 0.0 0.0 0.00 0.00 0.00 94 1013.0
20260903100047 74 166 0.0 0.0 0.00 0.00 0.00 94 1012.9
20260903094549 74 166 0.0 0.0 0.00 0.00 0.00 94 1012.9
20260903093103 74 166 0.0 0.0 0.00 0.00 0.00 94 1012.8
20260903091503 74 166 0.0 0.0 0.00 0.00 0.00 94 1013.0
20260903090007 74 166 0.0 0.0 0.00 0.00 0.00 93 1013.2
20260903084513 74 166 0.0 0.0 0.00 0.00 0.00 93 1013.2
20260903083009 74 166 0.0 0.0 0.00 0.00 0.00 93 1013.1
20260903081518 75 166 0.0 0.0 0.00 0.00 0.00 93 1013.0
20260903080020 75 166 0.0 0.0 0.00 0.00 0.00 93 1012.8
20260903074522 75 166 0.0 0.0 0.00 0.00 0.00 92 1012.8
20260903073028 75 166 0.0 0.0 0.00 0.00 0.00 92 1012.8
20260903071531 75 166 0.0 0.0 0.00 0.00 0.00 92 1012.7
20260903070028 75 166 0.0 0.0 0.00 0.00 0.00 92 1012.7
20260903064530 76 166 0.0 0.0 0.00 0.00 0.00 91 1012.7
20260903063026 76 166 0.0 0.0 0.00 0.00 0.00 91 1012.8
20260903061529 76 166 0.0 0.0 0.00 0.00 0.00 91 1012.8
20260903060032 76 166 0.0 0.0 0.00 0.00 0.00 90 1012.9
20260903054534 76 163 0.0 0.0 0.00 0.00 0.00 90 1012.8
20260903053037 77 163 0.0 0.0 0.00 0.00 0.00 89 1012.9
20260903051534 77 163 0.0 0.0 0.00 0.00 0.00 89 1013.0
20260903050043 77 163 0.0 0.0 0.00 0.00 0.00 88 1013.1
20260903044517 77 163 0.0 0.0 0.00 0.00 0.00 87 1013.1
20260903043019 77 163 0.0 0.0 0.00 0.00 0.00 87 1013.2
20260903041522 78 163 0.0 0.0 0.00 0.00 0.00 86 1013.2
20260903040029 78 163 0.0 0.0 0.00 0.00 0.00 86 1013.1
20260903034534 78 163 0.0 0.0 0.00 0.00 0.00 84 1013.1
20260903033037 79 163 0.0 0.0 0.00 0.00 0.00 83 1013.2
20260903031548 79 163 0.0 0.0 0.00 0.00 0.00 83 1013.2
20260903030045 79 163 0.0 0.0 0.00 0.00 0.00 82 1013.3
20260903024551 80 163 0.0 0.0 0.00 0.00 0.00 81 1013.2
20260903023049 80 163 0.0 0.0 0.00 0.00 0.00 79 1013.3
20260903021535 80 163 0.0 0.0 0.00 0.00 0.00 79 1013.1
20260903020056 81 163 0.0 0.0 0.00 0.00 0.00 77 1013.1
20260903014542 81 163 0.0 0.0 0.00 0.00 0.00 77 1013.0
20260903013049 82 163 0.0 0.0 0.00 0.00 0.00 74 1012.7
20260903011548 83 163 0.0 0.0 0.00 0.00 0.00 74 1012.6
20260903010043 83 163 0.0 0.0 0.00 0.00 0.00 73 1012.3
20260903004542 84 163 0.0 0.0 0.00 0.00 0.00 71 1012.3
20260903003044 85 163 0.0 0.0 0.00 0.00 0.00 70 1012.1
20260903001604 85 163 0.0 0.0 0.00 0.00 0.00 69 1012.1
20260903000059 86 163 0.0 0.0 0.00 0.00 0.00 66 1012.0
20260903000003 87 163 0.0 0.0 0.00 0.00 0.00 66 1012.0
20260902234558 88 163 0.0 0.0 0.00 0.00 0.00 64 1012.0
20260902233004 89 163 0.0 0.0 0.00 0.00 0.00 61 1012.0
20260902231512 92 163 0.0 0.0 0.00 0.00 0.00 58 1012.1
20260902230010 92 338 0.0 0.0 0.00 0.00 0.00 55 1012.0
20260902224514 92 343 0.0 0.0 0.00 0.00 0.00 54 1012.0
20260902223010 92 215 0.0 0.0 0.00 0.00 0.00 54 1012.0
20260902221521 92 201 0.0 0.0 0.00 0.00 0.00 55 1012.1
20260902220011 92 200 0.0 0.0 0.00 0.00 0.00 55 1012.1
20260902214515 92 200 0.0 0.0 0.00 0.00 0.00 53 1012.2
20260902213016 92 200 0.0 0.0 0.00 0.00 0.00 55 1012.2
20260902211517 92 221 0.0 0.0 0.00 0.00 0.00 55 1012.3
20260902210018 91 296 0.0 0.0 0.00 0.00 0.00 58 1012.4
20260902204520 92 296 0.0 0.0 0.00 0.00 0.00 52 1012.4
20260902203021 92 93 0.0 0.0 0.00 0.00 0.00 59 1012.5
20260902201521 92 93 0.0 0.0 0.00 0.00 0.00 58 1012.7
20260902200026 93 94 0.0 0.0 0.00 0.00 0.00 55 1012.8
20260902194544 93 82 0.0 0.0 0.00 0.00 0.00 56 1013.0